Hourly Data Report for September 20, 2017

All times are specified in Local Standard Time (LST). Add 1 hour to adjust for Daylight Saving Time where and when it is observed.

DOAKTOWN AUTO RCS
NEW BRUNSWICK

46°35'06.090" N
66°00'35.071" W
43.00 m
8101201
71038
ADN

Download Data

Hourly Data (September 2017)
Hourly Data Report for September 20, 2017
Temp Definition
°C
Dew Point Temp Definition
°C
Rel Hum Definition
%
Wind Dir Definition
10's deg

Wind Spd Definition
km/h
Visibility Definition
km
Stn Press Definition
kPa
Hmdx Definition


Wind Chill Definition


Weather Definition


TIME
00:00 16.0 15.3 96   0   101.41     LegendNANA
01:00 15.3 14.7 96   0   101.38     LegendNANA
02:00 15.0 14.4 96 0 1   101.35     LegendNANA
03:00 14.6 14.1 96   0   101.29     LegendNANA
04:00 14.8 14.2 97   0   101.26     LegendNANA
05:00 15.2 14.7 97 33 2   101.30     LegendNANA
06:00 15.5 14.9 97   0   101.29     LegendNANA
07:00 15.5 15.0 97 30 1   101.30     LegendNANA
08:00 16.9 16.4 97 19 1   101.27     LegendNANA
09:00 21.1 17.7 81 10 5   101.25 27   LegendNANA
10:00 22.5 17.5 73 10 5   101.22 28   LegendNANA
11:00 23.9 17.6 68 13 6   101.15 30   LegendNANA
12:00 24.8 17.3 63 10 8   101.09 30   LegendNANA
13:00 25.1 16.6 59 8 6   101.03 30   LegendNANA
14:00 26.0 15.5 52 4 6   100.99 30   LegendNANA
15:00 26.8 15.7 50 0 1   100.95 31   LegendNANA
16:00 25.8 15.1 52 3 6   100.94 30   LegendNANA
17:00 24.9 16.1 58 6 6   100.96 30   LegendNANA
18:00 21.9 17.5 76 2 15   101.01 28   LegendNANA
19:00 20.6 18.1 86 5 9   101.03 27   LegendNANA
20:00 19.8 17.7 87 4 6   101.08     LegendNANA
21:00 18.1 16.6 91 4 8   101.16     LegendNANA
22:00 16.6 15.2 91 5 8   101.26     LegendNANA
23:00 16.1 14.9 92 3 7   101.31     LegendNANA

Notes on Data Quality.

Legend

  • E = Estimated
  • M = Missing
  • NA = Not Available
  • ‡ = Partner data that is not subject to review by the National Climate Archives
Date modified: